| time (UTC) | temp F | wind direction | speed knots | gust knots | rain 1hr in | rain 24hr in | rain mn in | humidity % | barometer mb |
| 20260503224531 | 60 | 213 | 5.2 | 13.0 | 0.00 | 0.00 | 0.00 | 44 | 1013.7 |
| 20260503223032 | 60 | 207 | 5.2 | 12.2 | 0.00 | 0.00 | 0.00 | 44 | 1014.0 |
| 20260503221533 | 60 | 218 | 5.2 | 11.3 | 0.00 | 0.00 | 0.00 | 42 | 1014.0 |
| 20260503220032 | 61 | 217 | 7.8 | 14.8 | 0.00 | 0.00 | 0.00 | 42 | 1014.4 |
| 20260503214532 | 62 | 209 | 6.1 | 18.2 | 0.00 | 0.00 | 0.00 | 44 | 1014.6 |
| 20260503213032 | 62 | 234 | 4.3 | 14.8 | 0.00 | 0.00 | 0.00 | 44 | 1014.8 |
| 20260503211531 | 61 | 210 | 7.8 | 15.6 | 0.00 | 0.00 | 0.00 | 42 | 1014.9 |
| 20260503210033 | 62 | 217 | 7.0 | 18.2 | 0.00 | 0.00 | 0.00 | 41 | 1015.0 |
| 20260503204531 | 62 | 237 | 6.1 | 16.5 | 0.00 | 0.00 | 0.00 | 42 | 1015.3 |
| 20260503203036 | 61 | 256 | 7.0 | 17.4 | 0.00 | 0.00 | 0.00 | 40 | 1015.5 |
| 20260503201532 | 62 | 227 | 4.3 | 19.1 | 0.00 | 0.00 | 0.00 | 42 | 1015.4 |
| 20260503200030 | 63 | 238 | 7.0 | 13.9 | 0.00 | 0.00 | 0.00 | 39 | 1015.5 |
| 20260503194532 | 61 | 215 | 4.3 | 18.2 | 0.00 | 0.00 | 0.00 | 39 | 1015.8 |
| 20260503193030 | 60 | 238 | 5.2 | 13.0 | 0.00 | 0.00 | 0.00 | 43 | 1016.0 |
| 20260503191532 | 60 | 221 | 3.5 | 13.9 | 0.00 | 0.00 | 0.00 | 41 | 1016.6 |
| 20260503190033 | 60 | 222 | 6.1 | 14.8 | 0.00 | 0.00 | 0.00 | 41 | 1016.8 |
| 20260503184536 | 61 | 217 | 7.0 | 17.4 | 0.00 | 0.00 | 0.00 | 42 | 1017.1 |
| 20260503183031 | 60 | 229 | 7.0 | 15.6 | 0.00 | 0.00 | 0.00 | 41 | 1017.3 |
| 20260503181531 | 61 | 226 | 2.6 | 11.3 | 0.00 | 0.00 | 0.00 | 40 | 1017.4 |
| 20260503180035 | 60 | 217 | 4.3 | 14.8 | 0.00 | 0.00 | 0.00 | 41 | 1017.6 |
| 20260503174533 | 60 | 197 | 4.3 | 14.8 | 0.00 | 0.00 | 0.00 | 43 | 1017.7 |
| 20260503173035 | 59 | 209 | 4.3 | 14.8 | 0.00 | 0.00 | 0.00 | 40 | 1017.9 |
| 20260503171545 | 60 | 190 | 8.7 | 15.6 | 0.00 | 0.00 | 0.00 | 40 | 1018.2 |
| 20260503081534 | 33 | 30 | 0.0 | 1.7 | 0.00 | 0.00 | 0.00 | 87 | 1018.5 |
| 20260503071552 | 35 | 30 | 0.0 | 0.0 | 0.00 | 0.00 | 0.00 | 84 | 1018.4 |
| 20260503054539 | 35 | 0 | 0.0 | 1.7 | 0.00 | 0.00 | 0.00 | 85 | 1018.9 |
| 20260503053037 | 35 | 0 | 0.0 | 1.7 | 0.00 | 0.00 | 0.00 | 85 | 1018.9 |
| 20260503051532 | 36 | 0 | 0.0 | 0.9 | 0.00 | 0.00 | 0.00 | 81 | 1018.8 |
| 20260503050030 | 35 | 0 | 0.0 | 0.0 | 0.00 | 0.00 | 0.00 | 84 | 1018.9 |
| 20260503044544 | 35 | 0 | 0.0 | 0.0 | 0.00 | 0.00 | 0.00 | 83 | 1018.9 |
| 20260503043042 | 37 | 0 | 0.0 | 0.0 | 0.00 | 0.00 | 0.00 | 81 | 1018.9 |
| 20260503041532 | 36 | 0 | 0.0 | 0.0 | 0.00 | 0.00 | 0.00 | 85 | 1018.9 |
| 20260503040038 | 36 | 0 | 0.0 | 0.0 | 0.00 | 0.00 | 0.00 | 83 | 1019.1 |
| 20260503034530 | 38 | 0 | 0.0 | 0.0 | 0.00 | 0.00 | 0.00 | 79 | 1019.0 |
| 20260503033029 | 37 | 0 | 0.0 | 0.0 | 0.00 | 0.00 | 0.00 | 81 | 1019.1 |
| 20260503031532 | 37 | 0 | 0.0 | 0.0 | 0.00 | 0.00 | 0.00 | 81 | 1019.2 |
| 20260503030029 | 38 | 0 | 0.0 | 0.0 | 0.00 | 0.00 | 0.00 | 80 | 1019.1 |
| 20260503024531 | 39 | 0 | 0.0 | 0.0 | 0.00 | 0.00 | 0.00 | 77 | 1019.1 |
| 20260503023031 | 38 | 0 | 0.0 | 0.0 | 0.00 | 0.00 | 0.00 | 77 | 1019.1 |
| 20260503021530 | 40 | 0 | 0.0 | 0.0 | 0.00 | 0.00 | 0.00 | 74 | 1019.0 |
| 20260503020034 | 40 | 0 | 0.0 | 0.0 | 0.00 | 0.00 | 0.00 | 74 | 1018.7 |
| 20260503014532 | 40 | 0 | 0.0 | 0.0 | 0.00 | 0.00 | 0.00 | 72 | 1018.5 |
| 20260503013029 | 42 | 0 | 0.0 | 0.9 | 0.00 | 0.00 | 0.00 | 68 | 1018.5 |
| 20260503011532 | 42 | 0 | 0.0 | 1.7 | 0.00 | 0.00 | 0.00 | 67 | 1018.2 |
| 20260503010035 | 46 | 30 | 0.9 | 4.3 | 0.00 | 0.00 | 0.00 | 57 | 1018.2 |
| 20260503004532 | 47 | 30 | 0.9 | 8.7 | 0.00 | 0.00 | 0.00 | 54 | 1018.1 |
| 20260503003029 | 47 | 28 | 1.7 | 5.2 | 0.00 | 0.00 | 0.00 | 53 | 1017.8 |
| 20260503001529 | 48 | 26 | 2.6 | 7.8 | 0.00 | 0.00 | 0.00 | 51 | 1017.7 |
| 20260503000043 | 49 | 20 | 2.6 | 9.6 | 0.00 | 0.00 | 0.00 | 49 | 1017.6 |
| 20260502234531 | 50 | 5 | 1.7 | 6.1 | 0.00 | 0.00 | 0.00 | 49 | 1017.5 |
| 20260502233033 | 50 | 0 | 0.9 | 9.6 | 0.00 | 0.00 | 0.00 | 50 | 1017.5 |
| 20260502231534 | 51 | 13 | 2.6 | 6.1 | 0.00 | 0.00 | 0.00 | 46 | 1017.4 |
| 20260502230032 | 51 | 336 | 2.6 | 10.4 | 0.00 | 0.00 | 0.00 | 46 | 1017.4 |